Tegucigalpa, Honduras

4:02 PM CST on July 25, 2017 (GMT -0600)
Toncontin International

Weather History for MHTG - October, 2012

Change the Weather History Date:

Sunday, October 7, 2012

  Actual Average Record
Temperature  
Mean Temperature 73 °F -  
Max Temperature 82 °F 78 °F 86 °F (1999)
Min Temperature 64 °F 62 °F 60 °F (1996)
Cooling Degree Days 8    
Growing Degree Days 23 (Base 50)    
Moisture  
Dew Point 67 °F    
Average Humidity 86    
Maximum Humidity 100    
Minimum Humidity 57    
Precipitation  
Precipitation 0.02 in 0.12 in - ()
Sea Level Pressure  
Sea Level Pressure 29.97 in    
Wind  
Wind Speed 2 mph ()    
Max Wind Speed 8 mph    
Max Gust Speed -    
Visibility 5.8 miles    
Events Thunderstorm    
Averages and records for this station are not official NWS values.
T = Trace of Precipitation, MM = Missing Value Source: Averaged Metar Reports

Daily Weather History Graph

Daily Weather History Graph

Search for Another Location

Airport or City:

Trip Planner

Search our weather history database for the weather conditions in past years. The results will help you decide how hot, cold, wet, or windy it might be!

Date:

Astronomy

Oct. 07, 2012 Rise Set
Actual Time 5:38 AM CST 5:33 PM CST
Civil Twilight 5:17 AM CST 5:55 PM CST
Nautical Twilight 4:52 AM CST 6:20 PM CST
Astronomical Twilight 4:27 AM CST 6:44 PM CST
Moon 11:20 PM CST (10/7) 11:37 AM CST (10/7)
Length of Visible Light 12h 37m
Length of Day
11h 55m
Waning Gibbous, 55% of the Moon is Illuminated
Oct 7
Waning Gibbous
Oct 8
Last Quarter
Oct 15
New
Oct 21
First Quarter
Oct 29
Full

Hourly Weather History & Observations

Time (CST) Temp. Heat Index Dew Point Humidity Pressure Visibility Wind Dir Wind Speed Gust Speed Precip Events Conditions
12:00 AM 66 °F - 66 °F 100% 29.88 in 6 mi 2.3 mph - -   Haze
12:00 AM 66.2 °F - 66.2 °F 100% 30.04 in 6.2 mi Variable 2.3 mph - N/A   Mostly Cloudy
1:00 AM 64.4 °F - 64.4 °F 100% 30.01 in 6.2 mi Calm Calm - N/A   Scattered Clouds
2:00 AM 64.4 °F - 64.4 °F 100% 30.01 in 6.2 mi Calm Calm - N/A   Scattered Clouds
3:00 AM 65 °F - 65 °F 99% 29.85 in 6 mi Calm Calm - -   Mist
3:00 AM 64.4 °F - 64.4 °F 100% 30.27 in 6.2 mi Calm Calm - N/A   Mostly Cloudy
4:00 AM 64.4 °F - 64.4 °F 100% 29.98 in 6.2 mi Calm Calm - N/A   Mostly Cloudy
5:00 AM 64.4 °F - 64.4 °F 100% 30.01 in 6.2 mi Calm Calm - N/A   Mostly Cloudy
6:00 AM 66 °F - 66 °F 98% 29.86 in 5 mi 2.3 mph - -   Mist
6:00 AM 66.2 °F - 66.2 °F 100% 30.01 in 5.0 mi Variable 2.3 mph - N/A   Mostly Cloudy
7:00 AM 68.0 °F - 68.0 °F 100% 30.04 in 5.0 mi Calm Calm - N/A   Scattered Clouds
8:00 AM 71.6 °F - 68.0 °F 88% 30.04 in 3.1 mi West 2.3 mph - N/A   Mostly Cloudy
9:00 AM 75 °F - 68 °F 73% 29.83 in 6 mi NNW 4.6 mph - -   Haze
9:00 AM 75.2 °F - 68.0 °F 78% 30.04 in 6.2 mi NNW 4.6 mph - N/A   Mostly Cloudy
10:00 AM 78.8 °F - 69.8 °F 74% 30.04 in 6.2 mi North 5.8 mph - N/A   Mostly Cloudy
11:00 AM 78.8 °F - 68.0 °F 69% 30.04 in 6.2 mi North 5.8 mph - N/A   Mostly Cloudy
12:00 PM 81 °F - 69 °F 58% 29.76 in 7 mi North 6.9 mph - -   Haze
12:00 PM 80.6 °F 83.2 °F 68.0 °F 65% 30.01 in 6.2 mi North 6.9 mph - N/A   Mostly Cloudy
1:00 PM 78.8 °F - 68.0 °F 69% 29.98 in 6.2 mi Variable 2.3 mph - N/A   Mostly Cloudy
2:00 PM 77.0 °F - 68.0 °F 74% 29.95 in 5.6 mi North 8.1 mph - N/A   Mostly Cloudy
3:00 PM 79 °F - 67 °F 57% 29.68 in 7 mi NNW 3.5 mph - -   Haze
3:00 PM 78.8 °F - 66.2 °F 65% 29.92 in 6.2 mi NNW 3.5 mph - N/A   Scattered Clouds
3:24 PM 78.8 °F - 68.0 °F 69% 29.92 in 3.7 mi SW 3.5 mph - N/A   Scattered Clouds
4:00 PM 75.2 °F - 66.2 °F 73% 29.92 in 3.7 mi North 6.9 mph - N/A   Scattered Clouds
5:00 PM 73.4 °F - 68.0 °F 83% 29.95 in 5.6 mi West 4.6 mph - N/A Thunderstorm Thunderstorm
6:00 PM 72 °F - 68 °F 84% 29.81 in 6 mi West 5.8 mph - - Thunderstorm Thunderstorm
6:00 PM 71.6 °F - 68.0 °F 88% 29.98 in 6.2 mi West 5.8 mph - N/A Thunderstorm Thunderstorm
7:00 PM 69.8 °F - 68.0 °F 94% 30.01 in 5.6 mi West 3.5 mph - N/A Thunderstorm Unknown
8:00 PM 69.8 °F - 68.0 °F 94% 30.04 in 6.2 mi WSW 4.6 mph - N/A   Partly Cloudy
9:00 PM 69 °F - 68 °F 94% 29.90 in 6 mi SSW 2.3 mph - -   Scattered Clouds
9:00 PM 69.8 °F - 68.0 °F 94% 30.06 in 6.2 mi SSW 2.3 mph - N/A   Mostly Cloudy
10:00 PM 68.0 °F - 68.0 °F 100% 30.06 in 6.2 mi Calm Calm - N/A   Mostly Cloudy
11:00 PM 68.0 °F - 68.0 °F 100% 30.06 in 6.2 mi Calm Calm - N/A   Mostly Cloudy